This demonstration page uses our WeatherBlox Daily Observations layout. Learn more.

Left ArrowRight Arrow

34.02893, -84.19858

Hourly Observations for March 6, 2016

Temp ( °F °C ) Dew Point ( °F °C ) Humidity (%) Winds ( mph kmh ) Pressure ( in mb ) Visibility ( mi km ) Precip ( " mm )
12:53 am 00:53 Clear 51 10.6 38 3.3 61 61 NNW 10 17 30.15 1021 10 16 0.00 0.00
1:53 am 01:53 Clear 49 9.4 39 3.9 69 69 NW 7 11 30.17 1022 10 16 0.00 0.00
2:53 am 02:53 Clear 46 7.8 38 3.3 73 73 NNW 5 7 30.16 1021 10 16 0.00 0.00
3:53 am 03:53 Clear 46 7.8 37 2.8 71 71 NNW 5 7 30.16 1021 10 16 0.00 0.00
4:53 am 04:53 Clear 44 6.7 37 2.8 76 76 NNW 8 13 30.17 1022 10 16 0.00 0.00
5:53 am 05:53 Clear 44 6.7 35 1.7 71 71 NW 7 11 30.20 1023 10 16 0.00 0.00
6:53 am 06:53 Clear 41 5 35 1.7 79 79 WNW 6 9 30.24 1024 10 16 0.00 0.00
7:53 am 07:53 Sunny 44 6.7 35 1.7 71 71 NW 7 11 30.25 1025 10 16 0.00 0.00
8:53 am 08:53 Sunny 47 8.3 35 1.7 63 63 NW 6 9 30.27 1025 10 16 0.00 0.00
9:53 am 09:53 Sunny 51 10.6 34 1.1 52 52 NW 7 11 30.29 1026 10 16 0.00 0.00
10:53 am 10:53 Sunny 55 12.8 31 -0.6 40 40 NNW 6 9 30.28 1025 10 16 0.00 0.00
11:53 am 11:53 Sunny 58 14.4 31 -0.6 36 36 NNE 5 7 30.27 1025 10 16 0.00 0.00
12:53 pm 12:53 Sunny 61 16.1 29 -1.7 30 30 NW 3 6 30.24 1024 10 16 0.00 0.00
1:53 pm 13:53 Sunny 62 16.7 29 -1.7 29 29 Calm 30.21 1023 10 16 0.00 0.00
2:53 pm 14:53 Sunny 66 18.9 29 -1.7 25 25 N 5 7 30.19 1023 10 16 0.00 0.00
3:53 pm 15:53 Sunny 66 18.9 27 -2.8 23 23 Calm 30.18 1022 10 16 0.00 0.00
4:53 pm 16:53 Sunny 65 18.3 29 -1.7 26 26 SE 5 7 30.19 1022 10 16 0.00 0.00
5:53 pm 17:53 Sunny 64 17.8 29 -1.7 27 27 Calm 30.20 1023 10 16 0.00 0.00
6:53 pm 18:53 Clear 60 15.6 30 -1.1 32 32 SE 5 7 30.22 1023 10 16 0.00 0.00
7:53 pm 19:53 Clear 57 13.9 31 -0.6 37 37 SE 3 6 30.23 1024 10 16 0.00 0.00
8:53 pm 20:53 Clear 54 12.2 32 0 43 43 Calm 30.24 1024 10 16 0.00 0.00
9:53 pm 21:53 Clear 53 11.7 33 0.6 47 47 SE 5 7 30.25 1024 10 16 0.00 0.00
10:53 pm 22:53 Clear 51 10.6 33 0.6 50 50 SE 3 6 30.26 1025 10 16 0.00 0.00
11:53 pm 23:53 Clear 51 10.6 33 0.6 50 50 SE 6 9 30.25 1024 10 16 0.00 0.00

Powered by AerisWeather